Weather History for Mobile Downtown, AL

Change the Weather History Date:

Sunday, December 9, 2012

  Actual Average Record
Temperature  
Mean Temperature 62 °F -  
Max Temperature 72 °F 62 °F 75 °F (2007)
Min Temperature 51 °F 44 °F 25 °F (2010)
Degree Days  
Heating Degree Days 4    
Growing Degree Days 12 (Base 50)    
Moisture  
Dew Point 60 °F    
Average Humidity 95    
Maximum Humidity 100    
Minimum Humidity 76    
Precipitation  
Precipitation 0.01 in - - ()
Sea Level Pressure  
Sea Level Pressure 30.01 in    
Wind  
Wind Speed 3 mph (South)    
Max Wind Speed 10 mph    
Max Gust Speed -    
Visibility 6 miles    
Events Fog , Rain    
Averages and records for this station are not official NWS values.
T = Trace of Precipitation, MM = Missing Value Source: NWS Daily Summary

Daily Weather History Graph

Daily Weather History Graph

Search for Another Location

Airport:

Trip Planner

Search our weather history database for the weather conditions in past years. The results will help you decide how hot, cold, wet, or windy it might be!

Date:

Astronomy

Dec. 09, 2012 Rise Set
Actual Time 6:38 AM CST 4:51 PM CST
Civil Twilight 6:11 AM CST 5:17 PM CST
Nautical Twilight 5:41 AM CST 5:47 PM CST
Astronomical Twilight 5:12 AM CST 6:17 PM CST
Moon 2:23 AM CST (12/9) 1:47 PM CST (12/9)
Length of Visible Light 11h 05m
Length of Day
10h 13m
Waning Crescent, 18% of the Moon is Illuminated
Dec 9
Waning Crescent
Dec 13
New
Dec 19
First Quarter
Dec 28
Full
Jan 4
Last Quarter

Hourly Weather History & Observations

Time (CST) Temp. Dew Point Humidity Pressure Visibility Wind Dir Wind Speed Gust Speed Precip Events Conditions
12:30 AM 53.6 °F 53.6 °F 100% 30.02 in 0.2 mi Calm Calm - N/A Fog Fog
12:49 AM 53.6 °F 53.6 °F 100% 30.02 in 0.2 mi Calm Calm - N/A Fog Fog
12:53 AM 54.0 °F 54.0 °F 100% 30.02 in 0.2 mi Calm Calm - N/A Fog Fog
1:01 AM 53.6 °F 53.6 °F 100% 30.02 in 0.5 mi Calm Calm - N/A Fog Fog
1:21 AM 53.6 °F 53.6 °F 100% 30.01 in 0.5 mi NNW 3.5 mph - N/A Fog Fog
1:33 AM 53.6 °F 53.6 °F 100% 30.02 in 0.2 mi NW 3.5 mph - N/A Fog Fog
1:44 AM 53.6 °F 53.6 °F 100% 30.01 in 0.5 mi NW 3.5 mph - N/A Fog Fog
1:53 AM 54.0 °F 54.0 °F 100% 30.01 in 0.5 mi Calm Calm - N/A Fog Fog
2:01 AM 55.4 °F 55.4 °F 100% 30.01 in 0.2 mi NW 3.5 mph - N/A Fog Fog
2:53 AM 54.0 °F 54.0 °F 100% 30.01 in 0.2 mi Calm Calm - 0.01 in Fog Fog
3:03 AM 53.6 °F 53.6 °F 100% 30.01 in 0.2 mi Calm Calm - N/A Fog Fog
3:53 AM 53.1 °F 53.1 °F 100% 30.01 in 0.2 mi NW 3.5 mph - N/A Fog Fog
4:45 AM 53.6 °F 53.6 °F 100% 30.02 in 0.5 mi NW 3.5 mph - N/A Fog Fog
4:53 AM 54.0 °F 54.0 °F 100% 30.02 in 0.5 mi NW 3.5 mph - N/A Fog Fog
5:00 AM 53.6 °F 53.6 °F 100% 30.02 in 0.2 mi Calm Calm - N/A Fog Fog
5:07 AM 55.4 °F 55.4 °F 100% 30.03 in 0.5 mi Calm Calm - N/A Fog Fog
5:16 AM 53.6 °F 53.6 °F 100% 30.02 in 0.5 mi Calm Calm - N/A Fog Fog
5:32 AM 53.6 °F 53.6 °F 100% 30.03 in 0.2 mi Calm Calm - N/A Fog Fog
5:42 AM 51.8 °F 51.8 °F 100% 30.03 in 0.5 mi Calm Calm - N/A Fog Fog
5:53 AM 53.1 °F 53.1 °F 100% 30.04 in 0.8 mi Calm Calm - N/A   Mist
6:42 AM 51.8 °F 51.8 °F 100% 30.05 in 0.2 mi Calm Calm - N/A Fog Fog
6:53 AM 51.1 °F 51.1 °F 100% 30.05 in 0.2 mi Calm Calm - N/A Fog Fog
7:02 AM 53.6 °F 53.6 °F 100% 30.05 in 1.2 mi Calm Calm - N/A   Scattered Clouds
7:10 AM 53.6 °F 53.6 °F 100% 30.05 in 5.0 mi NW 3.5 mph - N/A   Scattered Clouds
7:53 AM 60.1 °F 59.0 °F 96% 30.06 in 5.0 mi Calm Calm - N/A   Scattered Clouds
8:53 AM 66.0 °F 64.0 °F 93% 30.08 in 10.0 mi ESE 3.5 mph - N/A   Mostly Cloudy
9:53 AM 69.1 °F 64.0 °F 84% 30.08 in 10.0 mi SSE 6.9 mph - N/A   Mostly Cloudy
10:53 AM 71.1 °F 64.9 °F 81% 30.06 in 10.0 mi SSE 8.1 mph - N/A   Mostly Cloudy
11:53 AM 72.0 °F 64.0 °F 76% 30.03 in 10.0 mi SSE 8.1 mph - N/A   Overcast
12:53 PM 70.0 °F 66.0 °F 87% 30.01 in 10.0 mi South 6.9 mph - 0.00 in Rain Light Rain
1:02 PM 71.6 °F 66.2 °F 83% 30.01 in 10.0 mi SSE 8.1 mph - 0.00 in   Overcast
1:11 PM 71.6 °F 66.2 °F 83% 30.01 in 10.0 mi SSE 10.4 mph - 0.00 in   Overcast
1:53 PM 72.0 °F 66.0 °F 81% 30.00 in 10.0 mi SSE 9.2 mph - 0.00 in   Overcast
2:53 PM 71.1 °F 66.0 °F 84% 29.99 in 10.0 mi SSE 9.2 mph - N/A   Mostly Cloudy
3:53 PM 70.0 °F 66.9 °F 90% 29.99 in 10.0 mi SSE 8.1 mph - N/A   Mostly Cloudy
4:53 PM 70.0 °F 66.9 °F 90% 29.99 in 10.0 mi SSE 8.1 mph - N/A   Overcast
5:53 PM 69.1 °F 68.0 °F 96% 29.98 in 10.0 mi SSE 9.2 mph - N/A   Overcast
6:53 PM 69.1 °F 68.0 °F 96% 29.99 in 10.0 mi SSE 8.1 mph - N/A   Overcast
7:03 PM 69.8 °F 68.0 °F 94% 29.99 in 10.0 mi South 6.9 mph - N/A   Overcast
7:53 PM 69.1 °F 68.0 °F 96% 29.99 in 10.0 mi South 8.1 mph - N/A   Overcast
8:20 PM 69.8 °F 68.0 °F 94% 29.99 in 10.0 mi Variable 3.5 mph - N/A   Overcast
8:31 PM 69.8 °F 68.0 °F 94% 29.99 in 10.0 mi South 6.9 mph - N/A   Overcast
8:51 PM 69.8 °F 68.0 °F 94% 29.98 in 10.0 mi SSE 6.9 mph - N/A   Mostly Cloudy
8:53 PM 69.1 °F 68.0 °F 96% 29.98 in 10.0 mi SSE 8.1 mph - N/A   Mostly Cloudy
9:35 PM 68.0 °F 68.0 °F 100% 29.98 in 10.0 mi South 5.8 mph - N/A   Overcast
9:46 PM 68.0 °F 68.0 °F 100% 29.97 in 10.0 mi SSE 5.8 mph - N/A   Overcast
9:53 PM 68.0 °F 68.0 °F 100% 29.97 in 10.0 mi SSE 5.8 mph - N/A   Overcast
10:53 PM 68.0 °F 66.9 °F 96% 29.96 in 10.0 mi SSE 6.9 mph - N/A   Overcast
11:14 PM 68.0 °F 66.2 °F 94% 29.96 in 10.0 mi South 4.6 mph - N/A   Mostly Cloudy
11:24 PM 68.0 °F 66.2 °F 94% 29.96 in 10.0 mi South 4.6 mph - N/A   Mostly Cloudy
11:36 PM 68.0 °F 66.2 °F 94% 29.96 in 10.0 mi South 4.6 mph - N/A   Scattered Clouds
11:53 PM 68.0 °F 66.9 °F 96% 29.96 in 10.0 mi South 3.5 mph - N/A   Partly Cloudy